Location: Neuvy Saint Sepulchre
(46.5953°N, 1.8122°E)
Time: 03:15:29
(UTC+01:00)

ISS - Pass Details

Date: 26 November 2019
Orbit: 411 x 421 km, 51.6° (Epoch: 16 December)

Event Time Altitude Azimuth Distance (km) Brightness Sun altitude
Rises 19:58:41 0° 272° (W) 2,359 1.3 -28.4°
Reaches altitude 10° 20:00:52 10° 280° (W) 1,498 -0.1 -28.8°
Enters shadow 20:01:49 17° 288° (WNW) 1,156 -0.8 -29.0°
